Regional Weather Roundup
Issued by NWS

Home | Current Version | Previous Version | Graphics & Text | Print | Product List | Glossary On
Versions: 1 2 3 4 5 6 7 8 9 10 11 12 13 14 15 16 17 18 19 20 21 22 23 24 25 26 27 28 29 30 31 32 33 34 35 36 37 38 39 40 41 42 43 44 45 46 47 48 49 50
159
ASUS45 KBOI 192010
RWRID

IDAHO REGIONAL WEATHER ROUNDUP
NATIONAL WEATHER SERVICE BOISE ID
100 PM MST MON FEB 19 2018

NOTE: "FAIR" INDICATES FEW OR NO CLOUDS BELOW 12000 FEET
WITH NO SIGNIFICANT WEATHER AND/OR OBSTRUCTIONS TO VISIBILITY

IDZ012-014-192100-
SOUTHWEST IDAHO


CITY           SKY/WX    TMP DP  RH WIND       PRES   REMARKS
BOISE          PTSUNNY   31  16  54 NW20G29   29.79R WCI  19
CALDWELL       PTSUNNY   31  10  41 W24G31    29.84S WCI  17
MOUNTAIN HOME  SUNNY     30  17  59 NW28G37   29.76S WCI  15
$$

IDZ016-017-192100-
SOUTHCENTRAL IDAHO


CITY           SKY/WX    TMP DP  RH WIND       PRES   REMARKS
BURLEY         MOSUNNY   25  18  74 W13G21    29.63F WCI  14
JEROME         CLOUDY    28  16  60 W17       29.65F WCI  16
TWIN FALLS     MOSUNNY   25  18  74 W23G32    29.66S WCI  10
$$

IDZ019>023-192100-
SOUTHEAST IDAHO


CITY           SKY/WX    TMP DP  RH WIND       PRES   REMARKS
IDAHO FALLS    PTSUNNY   20   2  45 N7        29.61F WCI  11
POCATELLO      MOSUNNY   23   8  52 W5        29.63F WCI  17
REXBURG        PTSUNNY   20   3  48 NE8       29.59F WCI  10
$$

IDZ006-010-011-018-031-032-192100-
CENTRAL IDAHO MOUNTAINS


CITY           SKY/WX    TMP DP  RH WIND       PRES   REMARKS
MCCALL         LGT SNOW  16  10  77 W10       29.66R VSB 1   WCI   4
HAILEY         PTSUNNY   27   9  46 E9        29.58F WCI  17
STANLEY          N/A     14   3  61 CALM      29.57F
SALMON         MOSUNNY   18   3  52 N5        29.78F WCI  11
CHALLIS        MOSUNNY   24   6  46 VRB3      29.63F
$$

IDZ002-004-006-007-026-192100-
NORTHERN IDAHO


CITY           SKY/WX    TMP DP  RH WIND       PRES   REMARKS
LEWISTON       CLOUDY    22   9  57 NW16G22   30.07S WCI   8
LOWELL           N/A     24  14  65 CALM      30.04R
COEUR D`ALENE  SUNNY     20   4  50 N10       30.01F WCI   9
MULLAN PASS    LGT SNOW   1  -3  83 CALM      29.67F FOG
$$




USA.gov is the U.S. government's official web portal to all federal, state and local government web resources and services.